Regional Weather Roundup
Issued by NWS Northern Indiana

Home | Current Version | Previous Version | Graphics & Text | Print | Product List | Glossary On
Versions: 1 2 3 4 5 6 7 8 9 10 11 12 13 14 15 16 17 18 19 20 21 22 23 24 25 26 27 28 29 30 31 32 33 34 35 36 37 38 39 40 41 42 43 44 45 46 47 48 49 50
000
ASUS43 KIWX 201310
RWRIWX

KIWX WEATHER ROUNDUP
NATIONAL WEATHER SERVICE NORTHERN INDIANA
900 AM EDT WED AUG 20 2014

NOTE: "FAIR" INDICATES FEW OR NO CLOUDS BELOW 12,000 FEET WITH NO
SIGNIFICANT WEATHER AND/OR OBSTRUCTIONS TO VISIBILITY.

* THESE STATIONS ARE NOT UNDER NWS QUALITY CONTROL. THEY ALSO MAY NOT
  REPORT WEATHER SUCH AS PRECIPITATION OR FOG.

INZ001>027-201400-
NORTHERN INDIANA

CITY           SKY/WX    TMP DP  RH WIND       PRES   REMARKS
GARY*          SUNNY     72  66  83 S5        29.86R
VALPARAISO     SUNNY     70  65  84 W6        29.87R
MICHIGAN CITY* SUNNY     70  68  94 W3        29.87R
LAPORTE*       SUNNY     68  68  99 W3        29.87R
KNOX*          SUNNY     68  65  89 SW3       29.86R
SOUTH BEND     SUNNY     71  65  81 CALM      29.86
ELKHART*       SUNNY     68  68 100 SW3       29.87R
GOSHEN         SUNNY     70  66  87 CALM      29.86S
MONTICELLO*    SUNNY     67  66  97 W3        29.88R
LOGANSPORT*    SUNNY     66  64  94 W6        29.89R FOG
ROCHESTER*     SUNNY     72  68  88 SW5       29.88R
WARSAW*        SUNNY     68  66  94 CALM      29.87S
ANGOLA*        SUNNY     72  63  73 W5        29.87R
FORT WAYNE     MOSUNNY   70  67  90 W6        29.88R
HUNTINGTON*    SUNNY     69  67  93 W5        29.88R
PERU/GRISSOM   SUNNY     69  69 100 W6        29.88R
MARION*        SUNNY     67  65  94 CALM      29.90R

$$
INZ028>050-201400-
CENTRAL INDIANA

CITY           SKY/WX    TMP DP  RH WIND       PRES   REMARKS
LAFAYETTE      MOSUNNY   66  66 100 W3        29.90R FOG
KOKOMO*        SUNNY     70  66  88 W6        29.89R
MUNCIE*        SUNNY     70  65  84 SW5       29.90R
INDIANAPOLIS   FOG       68  68 100 SW5       29.90R VSB 1/8

$$
MIZ043>046-050>051-056>058-064>065-071>073-077>080-201400-
SOUTHWEST LOWER MICHIGAN

CITY           SKY/WX    TMP DP  RH WIND       PRES   REMARKS
BATTLE CREEK   MOSUNNY   70  66  87 W6        29.87R
BENTON HARBOR  MOSUNNY   71  65  81 VRB3      29.84R
COLDWATER*     FOG       68  67  97 W5        29.86R VSB 1/2
HILLSDALE*     CLOUDY    68  68 100 NW6       29.87R FOG
HOLLAND        SUNNY     72  67  84 W5        29.85R
GRAND RAPIDS   SUNNY     69  66  90 W6        29.85R
KALAMAZOO      PTSUNNY   70  66  87 W3        29.86R
STURGIS*       PTSUNNY   66  66 100 W3        29.87R FOG
THREE RIVERS*  FAIR      69  69 100 CALM      29.87R FOG

$$
OHZ001>008-015>018-024>025-201400-
NORTHWEST OHIO

CITY           SKY/WX    TMP DP  RH WIND       PRES   REMARKS
WAUSEON*       FAIR      70  68  94 W8        29.86R FOG
DEFIANCE       SUNNY     70  66  87 VRB5      29.87R
FINDLAY        SUNNY     72  67  84 MISG      29.87R
TOLEDO EXPRESS MOSUNNY   69  66  90 W7        29.85R
TOLEDO METCALF SUNNY     70  66  87 SW8       29.86R
LIMA           MOSUNNY   71  66  84 SW9       29.89R

$$
&&



USA.gov is the U.S. government's official web portal to all federal, state and local government web resources and services.